Погода в Агалатове

Россия / Санкт-Петербург и Ленинградская область     60°13′08″N   30°17′01″E
темп.,
°C
ветер,
м/с
пор.,
м/с
влажн.,
%
обл.,
%
осадки,
мм/ч
давл.,
гПа
погр.,
м
5 августа, чт
чт500:00+11зюз228340 0.0 101623
03:00+10юз229019 0.0 101622
06:00+11юз118631 0.0 101617
09:00+17ююз116191 0.0 1017465
12:00+19ююз115056 0.1 10171222
15:00+15в3566100 0.3 1017313
18:00+17всв245073 0.0 1017409
21:00+13св237178 0.0 101763
6 августа, пт
пт600:00+13св257375 0.0 1017114
03:00+11ссв24815 0.0 101770
06:00+11ссв38905 0.0 1017167
09:00+16св486512 0.0 1017468
12:00+19всв58465 0.0 10161783
15:00+20всв584320 0.0 10162226
18:00+18всв5105498 0.0 10161534
21:00+14всв41172100 0.0 1015728
7 августа, сб
сб700:00+13всв6127898 0.0 1014828
03:00+13всв5118596 0.0 1013771
06:00+13всв51286100 0.0 1013603
09:00+15всв6137997 0.0 1012680
12:00+14всв61395100 2.8 1011646
15:00+14в51297100 3.2 1010758
18:00+15в51198100 1.9 1010670
21:00+15в4999100 8.2 1009518
8 августа, вс
вс800:00+15в3999100 1.3 1009486
03:00+15всв2499100 1.3 1008297
06:00+15вюв1299100 0.1 1008141
09:00+16юв1298100 0.1 1009171
12:00+17ссв1194100 0.1 1010308
15:00+17в2297100 0.9 1011204
18:00+16св2398100 0.0 1012147
21:00+15св129885 0.0 101343
9 августа, пн
пн900:00+14св239798 0.0 1014108
03:00+14всв1297100 0.0 101483
06:00+14в119895 0.0 101436
09:00+17в238698 0.0 1014430
12:00+20всв326869 0.0 1015898
15:00+21в3364100 0.0 1015920
18:00+19всв457298 0.0 1014482
21:00+15всв41089100 0.0 1013335